DateTimeUTC,F1_A11,F1_S11,BsB_S11,BsG_S11,BsR_S11,BbsB_S11,BbsG_S11,BbsR_S11,BaB_A11,BaG_A11,BaR_A11,Tu_S11,T_S11,Uu_S11,U_S11,P_S11,T1_A11
2021-07-10T04:00:00Z,00000200,21000000,,,,,,,-000.05,-000.15,-000.06,17.7,24.9,00.7,00.5,0674.1,31.0
2021-07-10T04:01:00Z,00000200,21000000,,,,,,,-000.04,-000.16,-000.18,17.7,24.9,00.6,00.4,0674.1,31.0
2021-07-10T04:02:00Z,00000200,21000000,,,,,,,0000.00,0000.09,-000.48,17.7,24.9,00.6,00.4,0674.1,31.0
2021-07-10T04:03:00Z,00000200,61000000,,,,,,,0000.22,0000.16,0000.62,17.7,24.9,00.6,00.4,0674.1,31.0
2021-07-10T04:04:00Z,00000200,41000000,0001.36,0000.50,0000.53,0000.77,0000.04,0000.36,0000.14,0000.06,-000.07,17.7,24.6,00.7,00.5,0675.0,31.0
2021-07-10T04:05:00Z,00000200,01000000,0000.89,0000.52,0000.43,-000.16,0000.21,0000.24,0000.08,0000.20,0000.24,17.8,24.6,00.7,00.4,0675.1,31.0
2021-07-10T04:06:00Z,00000200,01000000,0000.28,0000.67,0000.08,0000.25,0000.15,-000.04,0000.01,0000.22,0000.06,17.9,24.6,00.8,00.5,0675.1,31.0
2021-07-10T04:07:00Z,00000200,01000000,0000.71,0000.88,0000.38,0000.27,-000.23,-000.19,0000.41,0000.02,0000.00,18.0,24.6,00.7,00.5,0675.1,31.0
2021-07-10T04:08:00Z,00000200,01000000,0001.15,0000.03,0000.23,-000.13,-000.17,0000.14,-000.13,0000.15,-000.03,18.1,24.6,00.7,00.5,0675.1,31.0
2021-07-10T04:09:00Z,00000200,01000000,0000.59,0000.44,0000.14,0000.05,0000.10,0000.06,0000.32,0000.11,0000.24,18.1,24.7,00.6,00.4,0675.2,31.0
2021-07-10T04:10:00Z,00000200,01000000,0001.20,0000.43,0000.30,-000.11,0000.03,-000.01,-000.22,-000.16,0000.16,18.1,24.7,00.8,00.5,0675.2,31.0
2021-07-10T04:11:00Z,00000200,01000000,0001.15,0000.55,0000.29,-000.23,0000.11,-000.03,-000.07,0000.09,-000.14,18.1,24.7,00.7,00.5,0675.2,31.0
2021-07-10T04:12:00Z,00000200,01000000,0000.68,0000.19,0000.39,0000.13,-000.09,0000.30,0000.45,0000.28,0000.00,18.0,24.7,00.8,00.5,0675.1,31.0
2021-07-10T04:13:00Z,00000200,01000000,0000.87,0000.58,0000.39,0000.29,-000.02,0000.16,-000.29,-000.13,-000.15,18.0,24.6,00.7,00.5,0675.1,31.0
2021-07-10T04:14:00Z,00000200,01000000,0000.84,0000.22,0000.37,0000.31,0000.17,0000.08,-000.14,-000.22,0000.17,18.0,24.6,00.7,00.5,0675.1,31.0
2021-07-10T04:15:00Z,00000200,01000000,0001.05,0000.70,0000.48,-000.33,0000.15,-000.17,0000.29,0000.08,-000.10,17.9,24.6,00.7,00.5,0675.1,31.0
2021-07-10T04:16:00Z,00000200,01000000,0001.18,0000.50,0000.06,0000.31,0000.25,-000.28,0000.11,0000.44,0000.09,17.9,24.5,00.7,00.5,0675.1,31.0
2021-07-10T04:17:00Z,00000200,01000000,0001.28,0000.47,0000.11,0000.14,0000.07,-000.02,0000.32,0000.20,0000.57,17.8,24.5,00.8,00.5,0675.1,31.0
2021-07-10T04:18:00Z,00000200,01000000,0000.69,0000.61,0000.42,-000.22,0000.06,0000.03,0000.22,0000.18,0000.10,17.8,24.5,00.9,00.6,0675.1,31.0
2021-07-10T04:19:00Z,00000200,01000000,0000.30,0000.49,0000.62,0000.34,-000.07,0000.46,0000.55,0000.38,-000.05,17.8,24.5,00.9,00.6,0675.1,31.0
2021-07-10T04:20:00Z,00000200,01000000,0000.92,0000.65,0000.49,0000.03,0000.18,-000.14,-000.26,-000.13,0000.53,17.9,24.5,00.8,00.5,0675.1,31.0
2021-07-10T04:21:00Z,00000200,01000000,0000.90,0000.57,0000.32,0000.06,0000.12,-000.02,0000.21,0000.23,-000.38,17.9,24.5,00.8,00.5,0675.1,31.0
2021-07-10T04:22:00Z,00000200,01000000,0001.00,0000.56,0000.70,-000.27,-000.04,0000.18,0000.06,-000.26,0000.10,18.0,24.6,00.7,00.5,0675.1,31.0
2021-07-10T04:23:00Z,00000200,01000000,0000.75,0000.25,0000.62,0000.83,-000.03,0000.23,0000.39,0000.55,0000.27,18.1,24.6,00.7,00.5,0675.1,31.0
2021-07-10T04:24:00Z,00000200,01000000,0000.75,0000.61,0000.35,0000.26,0000.24,-000.06,0000.35,0000.14,-000.01,18.2,24.6,00.8,00.6,0675.2,31.1
2021-07-10T04:25:00Z,00000200,01000000,0000.64,-000.11,0000.49,0000.09,0000.08,0000.06,-000.49,-000.16,-000.05,18.2,24.7,00.8,00.5,0675.2,31.0
2021-07-10T04:26:00Z,00000200,01000000,0000.78,0000.62,0000.33,-000.01,0000.06,0000.01,-000.10,0000.19,0000.39,18.2,24.7,00.8,00.6,0675.2,31.0
2021-07-10T04:27:00Z,00000200,01000000,0001.52,0000.67,0000.60,-000.05,0000.26,0000.34,0000.50,0000.35,-000.05,18.1,24.7,00.9,00.6,0675.2,31.0
2021-07-10T04:28:00Z,00000200,01000000,0001.12,0000.37,0000.41,0000.60,0000.38,0000.06,0000.20,-000.08,0000.17,18.1,24.6,01.0,00.7,0675.2,31.0
2021-07-10T04:29:00Z,00000200,01000000,0000.90,0000.54,0000.40,0000.13,0000.10,0000.10,-000.09,-000.08,0000.08,18.0,24.6,01.0,00.6,0675.1,31.0
2021-07-10T04:30:00Z,00000200,01000000,0000.55,0000.51,0000.54,0000.25,-000.11,0000.20,0000.20,0000.44,0000.22,18.0,24.6,01.0,00.7,0675.1,31.0
2021-07-10T04:31:00Z,00000200,01000000,0000.27,0000.30,0000.74,-000.26,0000.09,0000.07,0000.26,0000.12,-000.03,17.9,24.6,01.1,00.8,0675.1,31.0
2021-07-10T04:32:00Z,00000200,01000000,0000.85,0000.29,0000.43,-000.08,0000.19,0000.08,0000.20,0000.19,0000.26,17.9,24.5,01.3,00.8,0675.1,31.0
2021-07-10T04:33:00Z,00000200,01000000,0001.14,0000.25,-000.03,0000.68,0000.31,-000.12,0000.31,0000.07,0000.24,17.9,24.5,01.2,00.8,0675.1,31.0
2021-07-10T04:34:00Z,00000200,01000000,0000.58,0000.34,0000.02,0000.16,0000.06,0000.14,0000.42,0000.27,-000.01,17.9,24.5,01.2,00.8,0675.1,31.0
2021-07-10T04:35:00Z,00000200,01000000,0001.43,0000.20,0000.39,0000.35,0000.01,0000.09,-000.21,0000.07,-000.08,17.9,24.5,01.3,00.9,0675.1,31.0
2021-07-10T04:36:00Z,00000200,01000000,0000.85,0000.36,0000.66,0000.63,-000.09,0000.14,0000.30,0000.23,0000.25,18.0,24.5,01.2,00.8,0675.1,31.0
2021-07-10T04:37:00Z,00000200,01000000,0000.41,0000.69,0000.14,0000.36,0000.01,-000.16,0000.12,-000.06,0000.09,18.1,24.5,01.2,00.8,0675.1,31.0
2021-07-10T04:38:00Z,00000200,01000000,0000.68,0000.66,0000.27,-000.85,0000.33,0000.18,-000.33,-000.15,-000.39,18.1,24.6,01.2,00.8,0675.1,31.0
2021-07-10T04:39:00Z,00000200,01000000,0001.62,0000.71,0000.10,-000.16,0000.19,0000.19,-000.11,-000.03,0000.53,18.2,24.6,01.0,00.7,0675.2,31.0
2021-07-10T04:40:00Z,00000200,01000000,0000.55,0000.15,0000.41,0000.08,-000.07,0000.16,-000.14,-000.14,-000.46,18.1,24.6,01.0,00.7,0675.2,31.0
2021-07-10T04:41:00Z,00000200,01000000,0000.94,0000.05,0000.47,0000.43,0000.04,0000.22,0000.16,0000.12,-000.10,18.1,24.6,00.9,00.6,0675.2,31.0
2021-07-10T04:42:00Z,00000200,01000000,0001.92,0000.51,0000.40,0000.58,0000.36,0000.02,0000.38,0000.28,0000.22,18.0,24.6,01.0,00.7,0675.2,31.0
2021-07-10T04:43:00Z,00000200,01000000,0000.81,0000.27,0000.25,0000.11,0000.26,0000.08,0000.03,-000.15,-000.01,18.0,24.5,01.1,00.7,0675.2,31.0
2021-07-10T04:44:00Z,00000200,01000000,0001.65,0000.33,0000.10,-000.35,0000.21,-000.28,-000.38,-000.12,-000.36,18.0,24.5,01.0,00.6,0675.2,31.0
2021-07-10T04:45:00Z,00000200,01000000,0000.58,0000.44,0000.30,-000.05,-000.04,-000.10,-000.14,-000.04,0000.20,17.9,24.5,00.7,00.4,0675.2,31.0
2021-07-10T04:46:00Z,00000200,01000000,0000.27,0000.53,0000.17,-000.14,0000.05,-000.15,-000.01,-000.08,-000.11,17.9,24.5,00.6,00.4,0675.2,31.0
2021-07-10T04:47:00Z,00000200,01000000,0001.05,0000.34,0000.50,0000.27,-000.26,-000.02,0000.32,0000.12,0000.26,17.8,24.5,00.5,00.3,0675.2,31.0
2021-07-10T04:48:00Z,00000200,01000000,0000.94,0000.59,0000.42,0000.09,0000.22,-000.23,0000.28,0000.00,-000.05,17.8,24.4,00.7,00.5,0675.2,31.0
2021-07-10T04:49:00Z,00000200,01000000,0001.82,-000.10,0000.27,-000.28,0000.12,0000.10,-000.34,0000.45,0000.04,17.8,24.4,00.7,00.4,0675.2,31.0
2021-07-10T04:50:00Z,00000200,01000000,0001.09,0000.39,0000.12,-000.35,-000.10,0000.14,0000.41,-000.08,0000.18,17.8,24.4,00.6,00.4,0675.2,31.0
2021-07-10T04:51:00Z,00000200,01000000,0000.60,0000.33,0000.28,0000.17,0000.10,0000.36,0000.23,-000.02,0000.07,17.9,24.4,00.5,00.4,0675.2,31.0
2021-07-10T04:52:00Z,00000200,01000000,0000.89,0000.26,0000.52,0000.14,0000.19,0000.05,-000.16,0000.25,0000.02,18.0,24.5,00.6,00.4,0675.2,31.0
2021-07-10T04:53:00Z,00000200,01000000,0001.40,0000.23,0000.40,0000.40,0000.07,0000.40,0000.50,0000.25,0000.16,18.1,24.5,00.6,00.4,0675.2,31.0
2021-07-10T04:54:00Z,00000200,01000000,0000.93,0000.62,0000.47,-000.25,0000.07,0000.30,-000.02,0000.12,0000.34,18.1,24.6,00.4,00.3,0675.2,31.0
2021-07-10T04:55:00Z,00000200,01000000,0001.05,0000.23,0000.05,-000.25,0000.46,-000.07,-000.31,-000.26,-000.23,18.1,24.6,00.4,00.3,0675.3,31.0
2021-07-10T04:56:00Z,00000200,01000000,0000.99,0000.57,0000.47,0000.05,0000.22,-000.09,0000.15,-000.07,0000.32,18.0,24.6,00.5,00.3,0675.3,31.0
2021-07-10T04:57:00Z,00000200,41000000,,,,,,,0000.32,0000.23,-000.29,18.0,24.6,00.6,00.4,0675.3,31.0
2021-07-10T04:58:00Z,00000200,61000000,,,,,,,-000.65,-000.14,0000.14,17.7,24.7,00.6,00.4,0674.3,31.0
2021-07-10T04:59:00Z,00000200,21000000,,,,,,,-000.26,-000.25,-000.74,17.6,24.8,00.3,00.2,0674.3,31.0
